Lid_Strength_Index
0 0 0 0 0 0 -0 -0 -1 -1 -1 -1 -1 -1 -1 -1 -1 1 4 2 1 -1 0 4 5 6 6 7 7 9 13 14 13 13 11 10 10 9 9 9 9 9 10 8 7
0 0 0 0 0 0 0 -0 -0 -1 -1 -1 -1 -1 -1 -1 2 4 1 -2 -2 -1 4 6 7 7 9 8 8 10 13 13 11 11 11 9 10 9 10 10 10 10 9 8 7
1 1 0 0 0 0 0 0 -0 -0 -1 -1 -1 -1 -1 1 4 5 -1 -2 -2 -0 4 5 6 7 9 9 9 10 12 11 10 9 9 9 10 9 10 12 11 10 9 9 9
0 0 0 1 0 0 0 0 -0 -0 -1 -0 -1 -1 0 3 10 4 -1 -1 -1 3 5 6 7 9 10 10 8 12 10 10 8 8 9 10 9 10 10 10 9 9 9 9 9
-0 0 0 0 1 0 0 0 -0 -0 0 0 -1 -0 3 7 6 2 -0 -0 3 4 6 7 9 9 10 10 9 11 10 9 8 9 9 8 10 11 11 10 9 9 9 10 10
0 0 0 0 0 0 0 0 0 -0 0 -0 -1 -0 4 9 2 2 3 3 4 5 7 7 8 8 9 10 11 10 9 9 9 8 9 10 10 10 11 10 10 9 11 11 10
0 0 0 0 0 0 0 0 0 -0 0 -0 -1 2 6 6 3 3 4 5 5 5 6 6 7 8 9 10 9 9 11 10 10 9 10 10 11 11 10 10 10 11 11 11 11
0 1 0 0 0 0 0 0 0 0 -0 -0 -1 3 8 4 3 3 4 5 5 5 5 5 6 7 8 8 10 12 12 14 10 10 10 11 13 10 11 11 12 12 12 11 11
1 1 1 0 1 0 0 0 0 0 -0 -1 3 5 8 3 4 3 4 5 5 6 6 5 6 9 9 12 13 13 15 14 12 10 11 12 14 12 11 11 12 12 12 12 12
2 2 1 1 0 0 0 0 1 1 0 1 2 8 7 7 5 4 5 5 6 7 8 8 9 12 12 13 16 15 15 13 13 12 12 13 13 12 12 12 12 12 12 12 13
2 2 2 1 1 0 1 3 5 6 4 8 7 7 7 6 5 5 5 6 7 8 12 10 13 14 12 12 11 12 14 14 13 11 12 13 13 12 11 12 13 13 13 13 13
1 2 2 2 1 0 2 5 5 5 8 4 5 5 6 6 9 7 5 8 9 12 10 12 14 10 10 10 11 12 14 14 12 11 12 13 13 12 12 12 12 12 12 13 14
1 2 1 2 1 2 4 4 3 4 9 7 5 5 7 7 8 8 7 9 10 11 11 13 11 9 10 11 12 13 14 14 13 13 13 14 15 14 12 11 12 12 12 13 14
1 1 1 1 3 2 4 3 2 3 12 11 8 6 7 7 10 6 6 8 10 11 11 12 9 10 12 12 12 14 11 11 12 14 17 14 18 15 14 14 13 12 13 14 14
2 1 1 1 3 4 3 2 2 4 19 10 9 6 7 8 9 9 7 9 11 11 10 12 12 12 12 12 10 13 12 13 14 16 17 17 18 16 13 13 14 13 14 14 14
3 2 1 2 2 2 2 2 4 13 19 11 10 10 10 8 10 10 9 9 9 11 11 12 11 12 11 12 11 12 13 14 15 16 20 17 17 16 15 13 12 12 14 15 14
3 3 2 1 4 1 2 4 13 18 10 13 12 11 11 12 13 12 13 13 14 15 16 14 14 13 12 13 12 13 14 19 20 21 20 16 18 14 13 13 12 13 14 15 14
1 2 3 2 1 1 3 10 18 14 12 10 11 11 13 11 13 13 14 15 13 14 15 16 18 13 12 13 14 14 15 18 23 21 20 18 19 16 13 14 13 12 13 14 15
1 2 3 3 1 2 7 15 15 12 11 11 11 13 13 12 12 14 15 15 13 13 15 16 17 13 13 12 12 16 16 13 16 23 23 18 16 14 15 15 15 14 14 15 15
4 3 3 1 0 3 10 13 12 9 8 9 13 12 15 14 13 15 15 13 13 12 12 12 16 15 15 13 14 14 13 17 18 24 23 20 19 16 16 15 15 15 15 15 15
4 6 3 -0 1 7 13 12 10 8 8 10 12 12 13 13 13 15 14 13 12 12 11 12 13 17 15 16 15 15 16 15 15 18 21 22 17 15 13 13 15 15 14 14 15
5 9 2 0 9 9 11 10 8 9 7 9 9 10 12 11 13 14 14 12 10 11 13 11 13 19 17 14 14 14 14 15 16 19 18 18 16 14 14 13 13 14 14 14 14
7 7 2 2 12 11 10 9 8 9 9 9 10 9 9 11 14 11 12 10 10 11 12 11 14 19 18 16 15 16 14 12 13 16 18 18 16 15 14 15 15 15 14 14 14
6 11 7 6 6 9 11 11 11 8 9 8 9 9 10 11 10 12 12 10 10 10 9 9 13 15 17 16 15 17 16 14 14 16 17 15 14 14 16 15 15 15 15 14 14
6 10 7 11 10 9 9 10 11 11 8 8 10 10 11 13 12 12 11 11 11 10 10 10 15 13 13 13 14 16 16 14 15 14 16 14 14 12 12 14 14 14 15 14 15
7 9 8 9 8 9 10 11 11 10 10 11 11 10 10 12 11 13 11 11 11 11 12 11 15 14 15 14 14 14 13 15 15 14 13 13 14 11 11 11 13 14 14 14 14
6 5 6 9 10 10 10 10 10 9 9 8 9 10 11 10 8 8 9 8 9 10 12 13 14 15 17 15 14 17 14 13 12 12 13 16 13 13 12 12 13 14 13 13 13